Time,TemperatureF,DewpointF,PressureIn,WindDirection,WindDirectionDegrees,WindSpeedMPH,WindSpeedGustMPH,Humidity,HourlyPrecipIn,Conditions,Clouds,dailyrainin,SoftwareType,DateUTC
2013-07-09 00:11:00,68.2,67.3,30.09,West,270,2.2,-999.0,97,-99.99,,,0.00,Acu-Link.com,2013-07-09 04:11:00,
2013-07-09 00:26:00,68.0,67.1,30.09,SSW,202,2.2,-999.0,97,-99.99,,,0.00,Acu-Link.com,2013-07-09 04:26:00,
2013-07-09 00:41:00,67.5,66.9,30.09,SW,225,2.7,-999.0,98,-99.99,,,0.00,Acu-Link.com,2013-07-09 04:41:00,
2013-07-09 00:57:00,66.7,66.1,30.09,South,180,0.0,-999.0,98,-99.99,,,0.00,Acu-Link.com,2013-07-09 04:57:00,
2013-07-09 01:12:00,66.4,66.1,30.09,South,180,0.0,-999.0,99,-99.99,,,0.00,Acu-Link.com,2013-07-09 05:12:00,
2013-07-09 01:27:00,66.2,65.9,30.09,South,180,0.0,-999.0,99,-99.99,,,0.00,Acu-Link.com,2013-07-09 05:27:00,
2013-07-09 01:42:00,66.2,65.9,30.08,South,180,0.0,-999.0,99,-99.99,,,0.00,Acu-Link.com,2013-07-09 05:42:00,
2013-07-09 01:58:00,66.4,66.1,30.08,South,180,0.0,-999.0,99,-99.99,,,0.00,Acu-Link.com,2013-07-09 05:58:00,
2013-07-09 02:13:00,66.6,66.3,30.08,WSW,247,0.0,-999.0,99,-99.99,,,0.00,Acu-Link.com,2013-07-09 06:13:00,
2013-07-09 02:28:00,66.6,66.3,30.08,SW,225,0.0,-999.0,99,-99.99,,,0.00,Acu-Link.com,2013-07-09 06:28:00,
2013-07-09 02:43:00,66.4,66.1,30.07,WSW,247,0.0,-999.0,99,-99.99,,,0.00,Acu-Link.com,2013-07-09 06:43:00,
2013-07-09 02:59:00,66.0,65.7,30.08,NE,45,0.0,-999.0,99,-99.99,,,0.00,Acu-Link.com,2013-07-09 06:59:00,
2013-07-09 03:14:00,65.7,65.4,30.07,ENE,67,0.0,-999.0,99,-99.99,,,0.00,Acu-Link.com,2013-07-09 07:14:00,
2013-07-09 03:29:00,65.7,65.4,30.07,ENE,67,0.0,-999.0,99,-99.99,,,0.00,Acu-Link.com,2013-07-09 07:29:00,
2013-07-09 03:45:00,65.8,65.5,30.07,SSE,157,0.0,-999.0,99,-99.99,,,0.00,Acu-Link.com,2013-07-09 07:45:00,
2013-07-09 04:00:00,65.7,65.4,30.07,NE,45,0.0,-999.0,99,-99.99,,,0.00,Acu-Link.com,2013-07-09 08:00:00,
2013-07-09 04:16:00,65.7,65.4,30.07,ENE,67,0.0,-999.0,99,-99.99,,,0.00,Acu-Link.com,2013-07-09 08:16:00,
2013-07-09 04:31:00,66.0,65.7,30.07,NNE,22,0.0,-999.0,99,-99.99,,,0.00,Acu-Link.com,2013-07-09 08:31:00,
2013-07-09 04:46:00,66.6,66.3,30.07,NW,315,0.0,-999.0,99,-99.99,,,0.00,Acu-Link.com,2013-07-09 08:46:00,
2013-07-09 05:01:00,65.8,65.5,30.08,SW,225,2.2,-999.0,99,-99.99,,,0.00,Acu-Link.com,2013-07-09 09:01:00,
2013-07-09 05:16:00,66.4,66.1,30.08,SW,225,2.7,-999.0,99,-99.99,,,0.00,Acu-Link.com,2013-07-09 09:16:00,
2013-07-09 05:31:00,66.4,66.1,30.07,SW,225,0.0,-999.0,99,-99.99,,,0.00,Acu-Link.com,2013-07-09 09:31:00,
2013-07-09 05:47:00,66.6,66.3,30.07,WSW,247,0.0,-999.0,99,-99.99,,,0.00,Acu-Link.com,2013-07-09 09:47:00,
2013-07-09 06:02:00,66.6,66.3,30.07,SW,225,1.7,-999.0,99,-99.99,,,0.00,Acu-Link.com,2013-07-09 10:02:00,
2013-07-09 06:17:00,66.2,65.9,30.07,ENE,67,0.0,-999.0,99,-99.99,,,0.00,Acu-Link.com,2013-07-09 10:17:00,
2013-07-09 06:32:00,65.8,65.5,30.07,East,90,0.0,-999.0,99,-99.99,,,0.00,Acu-Link.com,2013-07-09 10:32:00,
2013-07-09 06:48:00,66.0,65.7,30.07,North,0,0.0,-999.0,99,-99.99,,,0.00,Acu-Link.com,2013-07-09 10:48:00,
2013-07-09 07:03:00,66.7,66.4,30.07,WSW,247,0.0,-999.0,99,-99.99,,,0.00,Acu-Link.com,2013-07-09 11:03:00,
2013-07-09 07:18:00,66.7,66.4,30.07,SW,225,0.0,-999.0,99,-99.99,,,0.00,Acu-Link.com,2013-07-09 11:18:00,
2013-07-09 07:34:00,67.1,66.8,30.07,SSW,202,0.0,-999.0,99,-99.99,,,0.00,Acu-Link.com,2013-07-09 11:34:00,
2013-07-09 07:49:00,67.6,67.3,30.08,SW,225,0.0,-999.0,99,-99.99,,,0.00,Acu-Link.com,2013-07-09 11:49:00,
2013-07-09 08:04:00,68.5,68.2,30.08,WSW,247,0.0,-999.0,99,-99.99,,,0.00,Acu-Link.com,2013-07-09 12:04:00,
2013-07-09 08:19:00,70.0,69.4,30.07,South,180,0.0,-999.0,98,-99.99,,,0.00,Acu-Link.com,2013-07-09 12:19:00,
2013-07-09 08:34:00,71.1,69.6,30.07,West,270,2.7,-999.0,95,-99.99,,,0.00,Acu-Link.com,2013-07-09 12:34:00,
2013-07-09 08:50:00,72.3,70.5,30.08,West,270,2.2,-999.0,94,-99.99,,,0.00,Acu-Link.com,2013-07-09 12:50:00,
2013-07-09 09:05:00,73.0,70.9,30.08,WSW,247,4.2,-999.0,93,-99.99,,,0.00,Acu-Link.com,2013-07-09 13:05:00,
2013-07-09 09:20:00,73.8,71.3,30.08,West,270,4.2,-999.0,92,-99.99,,,0.00,Acu-Link.com,2013-07-09 13:20:00,
2013-07-09 09:36:00,73.4,71.2,30.08,SSW,202,3.7,-999.0,93,-99.99,,,0.00,Acu-Link.com,2013-07-09 13:36:00,
2013-07-09 09:51:00,75.6,71.4,30.09,West,270,2.7,-999.0,87,-99.99,,,0.00,Acu-Link.com,2013-07-09 13:51:00,
2013-07-09 10:06:00,76.5,70.2,30.08,SW,225,2.7,-999.0,81,-99.99,,,0.00,Acu-Link.com,2013-07-09 14:06:00,
2013-07-09 10:22:00,77.5,68.9,30.08,WSW,247,6.8,-999.0,75,-99.99,,,0.00,Acu-Link.com,2013-07-09 14:22:00,
2013-07-09 10:37:00,77.5,68.1,30.09,West,270,6.3,-999.0,73,-99.99,,,0.00,Acu-Link.com,2013-07-09 14:37:00,
2013-07-09 10:52:00,77.2,69.4,30.09,NW,315,3.7,-999.0,77,-99.99,,,0.00,Acu-Link.com,2013-07-09 14:52:00,
2013-07-09 11:07:00,77.2,68.3,30.09,SW,225,4.2,-999.0,74,-99.99,,,0.00,Acu-Link.com,2013-07-09 15:07:00,
2013-07-09 11:23:00,77.5,68.9,30.09,West,270,3.7,-999.0,75,-99.99,,,0.00,Acu-Link.com,2013-07-09 15:23:00,
2013-07-09 11:38:00,79.0,68.4,30.09,West,270,3.2,-999.0,70,-99.99,,,0.00,Acu-Link.com,2013-07-09 15:38:00,
2013-07-09 11:53:00,80.6,66.4,30.08,SSW,202,3.2,-999.0,62,-99.99,,,0.00,Acu-Link.com,2013-07-09 15:53:00,
2013-07-09 12:08:00,79.5,67.6,30.08,SW,225,2.7,-999.0,67,-99.99,,,0.00,Acu-Link.com,2013-07-09 16:08:00,
2013-07-09 12:24:00,78.3,67.7,30.09,West,270,2.2,-999.0,70,-99.99,,,0.00,Acu-Link.com,2013-07-09 16:24:00,
2013-07-09 12:39:00,79.5,69.3,30.09,West,270,3.7,-999.0,71,-99.99,,,0.00,Acu-Link.com,2013-07-09 16:39:00,
2013-07-09 12:54:00,82.8,66.5,30.09,NNE,22,3.7,-999.0,58,-99.99,,,0.00,Acu-Link.com,2013-07-09 16:54:00,
2013-07-09 13:09:00,81.3,66.1,30.09,NW,315,3.7,-999.0,60,-99.99,,,0.00,Acu-Link.com,2013-07-09 17:09:00,
2013-07-09 13:25:00,80.4,67.1,30.08,SSW,202,2.7,-999.0,64,-99.99,,,0.00,Acu-Link.com,2013-07-09 17:25:00,
2013-07-09 13:40:00,80.8,65.1,30.08,West,270,2.2,-999.0,59,-99.99,,,0.00,Acu-Link.com,2013-07-09 17:40:00,
2013-07-09 13:55:00,82.0,65.7,30.07,SSW,202,0.0,-999.0,58,-99.99,,,0.00,Acu-Link.com,2013-07-09 17:55:00,
2013-07-09 14:10:00,82.4,68.0,30.07,ENE,67,0.0,-999.0,62,-99.99,,,0.00,Acu-Link.com,2013-07-09 18:10:00,
2013-07-09 14:26:00,83.8,68.4,30.05,WNW,292,1.1,-999.0,60,-99.99,,,0.00,Acu-Link.com,2013-07-09 18:26:00,
2013-07-09 14:41:00,83.7,68.8,30.04,NE,45,1.1,-999.0,61,-99.99,,,0.00,Acu-Link.com,2013-07-09 18:41:00,
2013-07-09 14:56:00,83.8,70.8,30.04,East,90,2.7,-999.0,65,-99.99,,,0.00,Acu-Link.com,2013-07-09 18:56:00,
2013-07-09 15:11:00,83.1,70.1,30.04,East,90,2.2,-999.0,65,-99.99,,,0.00,Acu-Link.com,2013-07-09 19:11:00,
2013-07-09 15:26:00,84.2,69.7,30.03,SW,225,2.7,-999.0,62,-99.99,,,0.00,Acu-Link.com,2013-07-09 19:26:00,
2013-07-09 15:41:00,84.0,68.1,30.03,ESE,112,3.2,-999.0,59,-99.99,,,0.00,Acu-Link.com,2013-07-09 19:41:00,
2013-07-09 15:57:00,84.9,69.9,30.02,NE,45,1.7,-999.0,61,-99.99,,,0.00,Acu-Link.com,2013-07-09 19:57:00,
2013-07-09 16:12:00,84.0,72.3,30.02,ENE,67,5.3,-999.0,68,-99.99,,,0.00,Acu-Link.com,2013-07-09 20:12:00,
2013-07-09 16:27:00,83.5,72.2,30.01,East,90,6.3,-999.0,69,-99.99,,,0.00,Acu-Link.com,2013-07-09 20:27:00,
2013-07-09 16:42:00,83.1,71.9,30.01,East,90,6.8,-999.0,69,-99.99,,,0.00,Acu-Link.com,2013-07-09 20:42:00,
2013-07-09 16:57:00,82.8,71.6,30.00,ESE,112,9.4,-999.0,69,-99.99,,,0.00,Acu-Link.com,2013-07-09 20:57:00,
2013-07-09 17:13:00,81.3,71.4,30.01,ESE,112,4.7,-999.0,72,-99.99,,,0.00,Acu-Link.com,2013-07-09 21:13:00,
2013-07-09 17:28:00,82.0,72.1,30.01,ESE,112,5.8,-999.0,72,-99.99,,,0.00,Acu-Link.com,2013-07-09 21:28:00,
2013-07-09 17:43:00,82.4,71.2,30.00,ESE,112,5.3,-999.0,69,-99.99,,,0.00,Acu-Link.com,2013-07-09 21:43:00,
2013-07-09 17:58:00,81.7,71.4,30.00,SSW,202,6.3,-999.0,71,-99.99,,,0.00,Acu-Link.com,2013-07-09 21:58:00,
2013-07-09 18:13:00,81.7,72.2,30.00,South,180,6.3,-999.0,73,-99.99,,,0.00,Acu-Link.com,2013-07-09 22:13:00,
2013-07-09 18:29:00,83.3,72.9,30.00,ESE,112,5.3,-999.0,71,-99.99,,,0.00,Acu-Link.com,2013-07-09 22:29:00,
2013-07-09 18:44:00,82.2,73.1,30.02,East,90,6.3,-999.0,74,-99.99,,,0.00,Acu-Link.com,2013-07-09 22:44:00,
2013-07-09 18:59:00,79.9,72.8,30.01,SSE,157,3.2,-999.0,79,-99.99,,,0.00,Acu-Link.com,2013-07-09 22:59:00,
2013-07-09 19:14:00,79.9,72.8,30.01,SSE,157,3.7,-999.0,79,-99.99,,,0.00,Acu-Link.com,2013-07-09 23:14:00,
2013-07-09 19:30:00,78.3,72.3,30.02,SSE,157,3.7,-999.0,82,-99.99,,,0.00,Acu-Link.com,2013-07-09 23:30:00,
2013-07-09 19:45:00,77.7,72.1,30.01,SSW,202,5.8,-999.0,83,-99.99,,,0.00,Acu-Link.com,2013-07-09 23:45:00,
2013-07-09 20:00:00,76.8,71.6,30.02,WSW,247,2.7,-999.0,84,-99.99,,,0.00,Acu-Link.com,2013-07-10 00:00:00,
2013-07-09 20:15:00,75.7,71.2,30.02,SW,225,4.7,-999.0,86,-99.99,,,0.00,Acu-Link.com,2013-07-10 00:15:00,
2013-07-09 20:31:00,74.8,71.0,30.02,SSW,202,1.7,-999.0,88,-99.99,,,0.00,Acu-Link.com,2013-07-10 00:31:00,
2013-07-09 20:46:00,74.5,70.7,30.02,WSW,247,5.3,-999.0,88,-99.99,,,0.00,Acu-Link.com,2013-07-10 00:46:00,
2013-07-09 21:01:00,74.5,70.7,30.03,South,180,3.7,-999.0,88,-99.99,,,0.00,Acu-Link.com,2013-07-10 01:01:00,
2013-07-09 21:16:00,74.1,70.0,30.03,SW,225,2.7,-999.0,87,-99.99,,,0.00,Acu-Link.com,2013-07-10 01:16:00,
2013-07-09 21:32:00,73.8,69.7,30.03,SW,225,2.2,-999.0,87,-99.99,,,0.00,Acu-Link.com,2013-07-10 01:32:00,
2013-07-09 21:47:00,73.2,68.4,30.04,South,180,1.7,-999.0,85,-99.99,,,0.00,Acu-Link.com,2013-07-10 01:47:00,
2013-07-09 22:02:00,72.5,68.1,30.04,WSW,247,2.2,-999.0,86,-99.99,,,0.00,Acu-Link.com,2013-07-10 02:02:00,
2013-07-09 22:17:00,72.1,67.3,30.04,WSW,247,0.0,-999.0,85,-99.99,,,0.00,Acu-Link.com,2013-07-10 02:17:00,
2013-07-09 22:33:00,71.4,66.6,30.04,WNW,292,0.0,-999.0,85,-99.99,,,0.00,Acu-Link.com,2013-07-10 02:33:00,
2013-07-09 22:48:00,71.1,67.0,30.05,SW,225,0.0,-999.0,87,-99.99,,,0.00,Acu-Link.com,2013-07-10 02:48:00,
2013-07-09 23:03:00,70.7,67.3,30.04,WSW,247,0.0,-999.0,89,-99.99,,,0.00,Acu-Link.com,2013-07-10 03:03:00,
2013-07-09 23:19:00,69.8,67.0,30.04,WSW,247,0.0,-999.0,91,-99.99,,,0.00,Acu-Link.com,2013-07-10 03:19:00,
2013-07-09 23:34:00,68.9,66.2,30.03,WSW,247,0.0,-999.0,91,-99.99,,,0.00,Acu-Link.com,2013-07-10 03:34:00,
2013-07-09 23:49:00,68.2,66.1,30.03,NE,45,0.0,-999.0,93,-99.99,,,0.00,Acu-Link.com,2013-07-10 03:49:00,